Home > Weather > Rockhampton > Past weeks

Flag for Australia Past Weather in Rockhampton, Queensland, Australia — Yesterday and Last 2 Weeks

Now
57 °F

Clear.


Feels Like: 57 °F
Forecast: 53 / 73 °F
Wind: 3 mph from South

Location: Rockhampton Airport

Current Time: Jul 30, 2016 at 12:06:55 AM

Latest Report: Jul 29, 2016 at 11:00 PM


Visibility: N/A

Pressure: 30.15 "Hg

Humidity: 88%

Dew Point: 54 °F

Location of RockhamptonLocation

Past Weather in Rockhampton — Graph

°F

Rockhampton Temperature Yesterday

Maximum temperature yesterday: 73 °F (at 1:00 PM)
Minimum temperature yesterday: 50 °F (at 2:00 AM)
Average temperature yesterday: 61 °F

High & Low Weather Summary for the Past Weeks

 TemperatureHumidityPressure
High84 °F (Jul 24, 2:30 PM)100% (Jul 15, 6:30 AM)30.24 "Hg (Jul 15, 6:30 AM)
Low48 °F (Jul 28, 5:00 AM)22% (Jul 27, 11:30 AM)29.86 "Hg (Jul 23, 3:00 PM)
Average66 °F77%30.07 "Hg
* Reported Jul 14 11:00 PM — Jul 29 11:00 PM, Rockhampton, Weather by CustomWeather, © 2016

Note: Actual official high and low records may vary slightly from our data, if they occured in-between our weather recording intervals... More about our weather records

Advertising

Rockhampton Weather History for the Previous 24 Hours

Scroll right to see more
 ConditionsComfort  
Time TempWeatherWind HumidityBarometerVisibility
11:00 PM
Fri, Jul 29
57 °FClear.3 mph88%30.15 "HgN/A
10:30 PM61 °FClear.5 mph77%30.15 "HgN/A
10:00 PM61 °FClear.2 mph83%30.15 "HgN/A
9:30 PM61 °FClear.5 mph77%30.12 "HgN/A
9:00 PM61 °FPassing clouds.5 mph77%30.12 "HgN/A
8:30 PM61 °FClear.7 mph77%30.12 "HgN/A
8:00 PM63 °FClear.5 mph77%30.12 "HgN/A
7:00 PM66 °FClear.5 mph68%30.09 "HgN/A
6:00 PM68 °FClear.8 mph60%30.09 "HgN/A
5:30 PM70 °FPassing clouds.7 mph53%30.09 "HgN/A
5:00 PM72 °FPassing clouds.8 mph50%30.07 "HgN/A
4:30 PM72 °FPartly sunny.7 mph50%30.07 "HgN/A
4:00 PM73 °FScattered clouds.8 mph47%30.07 "HgN/A
3:00 PM73 °FPassing clouds.6 mph44%30.07 "HgN/A
2:30 PM73 °FPassing clouds.8 mph44%30.07 "HgN/A
2:00 PM72 °FPassing clouds.9 mph47%30.09 "HgN/A
1:30 PM73 °FPassing clouds.13 mph44%30.09 "HgN/A
1:00 PM73 °FSunny.9 mph47%30.09 "HgN/A
12:00 PM72 °FPassing clouds.12 mph50%30.15 "HgN/A
11:00 AM70 °FPassing clouds.8 mph50%30.18 "HgN/A
10:30 AM68 °FPassing clouds.6 mph49%30.18 "HgN/A
10:00 AM66 °FPassing clouds.3 mph49%30.18 "HgN/A
9:30 AM63 °FPassing clouds.1 mph59%30.21 "HgN/A
9:00 AM61 °FPassing clouds.2 mph63%30.21 "HgN/A
8:00 AM55 °FPassing clouds.No wind67%30.18 "HgN/A
7:00 AM52 °FSunny.5 mph72%30.18 "HgN/A
6:30 AM50 °FSunny.3 mph82%30.18 "HgN/A
6:00 AM50 °FSunny.5 mph82%30.15 "HgN/A
5:30 AM50 °FClear.5 mph76%30.15 "HgN/A
5:00 AM50 °FClear.1 mph82%30.15 "HgN/A
4:30 AM52 °FClear.5 mph72%30.15 "HgN/A
4:00 AM50 °FClear.3 mph94%30.12 "HgN/A
3:30 AM50 °FClear.No wind88%30.15 "HgN/A
3:00 AM50 °FClear.No wind88%30.15 "HgN/A
2:30 AM50 °FClear.No wind88%30.15 "HgN/A
2:00 AM50 °FClear.No wind94%30.15 "HgN/A
1:00 AM52 °FClear.3 mph88%30.18 "HgN/A
12:30 AM52 °FClear.3 mph94%30.18 "HgN/A
12:00 AM52 °FClear.3 mph88%30.18 "HgN/A
Weather by CustomWeather, © 2016

See weather overviewHow to use our weather pages